Waterloo Wellington, Ontario

7:15 PM EST on February 06, 2016 (GMT -0500)
Kitchener-Waterloo Regional

Weather History for CYKF - September, 2013

Change the Weather History Date:

Tuesday, September 10, 2013

  Actual Average Record
Temperature  
Mean Temperature 79 °F -  
Max Temperature 93 °F 63 °F 93 °F (2013)
Min Temperature 65 °F 45 °F 39 °F (2008)
Cooling Degree Days 14    
Growing Degree Days 29 (Base 50)    
Moisture  
Dew Point 69 °F    
Average Humidity 81    
Maximum Humidity 100    
Minimum Humidity 36    
Precipitation  
Precipitation 0.01 in 0.11 in - ()
Sea Level Pressure  
Sea Level Pressure 29.92 in    
Wind  
Wind Speed 8 mph ()    
Max Wind Speed 20 mph    
Max Gust Speed 28 mph    
Visibility 5.8 miles    
Events Rain    
Averages and records for this station are not official NWS values.
T = Trace of Precipitation, MM = Missing Value Source: Averaged Metar Reports

Daily Weather History Graph

Daily Weather History Graph

Search for Another Location

Airport or City:

Trip Planner

Search our weather history database for the weather conditions in past years. The results will help you decide how hot, cold, wet, or windy it might be!

Date:

Astronomy

Sep. 10, 2013 Rise Set
Actual Time 6:55 AM EDT 7:40 PM EDT
Civil Twilight 6:26 AM EDT 8:09 PM EDT
Nautical Twilight 5:52 AM EDT 8:43 PM EDT
Astronomical Twilight 5:16 AM EDT 9:18 PM EDT
Moon 12:30 PM EDT (9/10) 10:31 PM EDT (9/10)
Length of Visible Light 13h 42m
Length of Day
12h 44m
Waxing Crescent, 28% of the Moon is Illuminated
Sep 10
Waxing Crescent
Sep 12
First Quarter
Sep 19
Full
Sep 26
Last Quarter
Oct 4
New

Hourly Weather History & Observations

Time (EDT) Temp. Heat Index Dew Point Humidity Pressure Visibility Wind Dir Wind Speed Gust Speed Precip Events Conditions
12:00 AM 66.2 °F - 64.4 °F 94% 29.96 in 4.0 mi SSW 2.3 mph - N/A   Mostly Cloudy
1:00 AM 66.2 °F - 66.2 °F 100% 29.93 in 3.0 mi South 6.9 mph - N/A   Scattered Clouds
1:02 AM 68.0 °F - 68.0 °F 100% 29.93 in 2.5 mi South 6.9 mph - N/A   Scattered Clouds
2:00 AM 67 °F - 67 °F 100% 29.91 in 2 mi South 6.9 mph - -   Mist
2:00 AM 68.0 °F - 68.0 °F 100% 29.91 in 2.0 mi South 6.9 mph - N/A   Overcast
2:33 AM 68.0 °F - 68.0 °F 100% 29.91 in 2.2 mi South 6.9 mph - N/A Rain Light Rain
2:45 AM 68.0 °F - 68.0 °F 100% 29.91 in 2.2 mi South 5.8 mph - N/A   Mostly Cloudy
2:56 AM 68.0 °F - 68.0 °F 100% 29.90 in 2.2 mi SSW 5.8 mph - N/A Rain Light Rain
3:00 AM 68.0 °F - 68.0 °F 100% 29.90 in 2.2 mi SSW 5.8 mph - N/A Rain Light Rain
3:09 AM 68.0 °F - 68.0 °F 100% 29.90 in 2.5 mi SSW 4.6 mph - N/A   Mostly Cloudy
3:24 AM 69.8 °F - 68.0 °F 94% 29.90 in 2.5 mi South 8.1 mph - N/A Rain Light Rain
3:34 AM 69.8 °F - 69.8 °F 100% 29.90 in 3.0 mi SSW 9.2 mph - N/A Rain Light Rain
3:36 AM 69.8 °F - 69.8 °F 100% 29.90 in 3.0 mi SSW 8.1 mph - N/A   Mostly Cloudy
4:00 AM 71.6 °F - 69.8 °F 94% 29.89 in 3.0 mi SSW 10.4 mph 17.3 mph N/A   Mostly Cloudy
4:33 AM 71.6 °F - 69.8 °F 94% 29.89 in 6.0 mi SW 10.4 mph - N/A   Mostly Cloudy
5:00 AM 71.6 °F - 69.8 °F 94% 29.89 in 6.0 mi SW 9.2 mph 18.4 mph N/A   Mostly Cloudy
6:00 AM 71.6 °F - 69.8 °F 94% 29.89 in 6.0 mi WSW 11.5 mph - N/A   Partly Cloudy
7:00 AM 71.6 °F - 69.8 °F 94% 29.91 in 6.0 mi SW 9.2 mph - N/A   Clear
7:31 AM 71.6 °F - 69.8 °F 94% 29.91 in 5.0 mi SW 10.4 mph - N/A   Clear
8:00 AM 72 °F - 70 °F 92% 29.91 in 5 mi SW 10.4 mph - -   Mist
8:00 AM 71.6 °F - 69.8 °F 94% 29.91 in 5.0 mi SW 9.2 mph 17.3 mph N/A   Clear
8:54 AM 75.2 °F - 69.8 °F 83% 29.93 in 6.0 mi WSW 9.2 mph - N/A   Clear
9:00 AM 75.2 °F - 69.8 °F 83% 29.93 in 6.0 mi SW 9.2 mph - N/A   Clear
10:00 AM 78.8 °F - 71.6 °F 78% 29.94 in 7.0 mi SW 10.4 mph - N/A   Clear
11:00 AM 82.4 °F 87.2 °F 71.6 °F 70% 29.94 in 9.0 mi SSW 10.4 mph - N/A   Clear
12:00 PM 86.0 °F 91.8 °F 71.6 °F 62% 29.94 in 9.0 mi SW 15.0 mph - N/A   Clear
1:00 PM 89.6 °F 94.7 °F 69.8 °F 52% 29.94 in 9.0 mi WSW 11.5 mph 18.4 mph N/A   Clear
2:00 PM 91 °F - 71 °F 43% 29.94 in 10 mi SW 16.1 mph - -  
2:00 PM 91.4 °F 98.4 °F 71.6 °F 52% 29.94 in 9.0 mi SSW 15.0 mph 20.7 mph N/A   Clear
3:00 PM 91.4 °F 96.8 °F 69.8 °F 49% 29.93 in 9.0 mi SW 13.8 mph - N/A   Clear
4:00 PM 93.2 °F 94.9 °F 64.4 °F 38% 29.92 in 9.0 mi WSW 19.6 mph 27.6 mph N/A   Clear
5:00 PM 93.2 °F 94.1 °F 62.6 °F 36% 29.92 in 9.0 mi WSW 16.1 mph 26.5 mph N/A   Clear
6:00 PM 91.4 °F 93.2 °F 64.4 °F 41% 29.93 in 9.0 mi WSW 19.6 mph 25.3 mph N/A   Clear
7:00 PM 86.0 °F 91.8 °F 71.6 °F 62% 29.94 in 9.0 mi SSW 9.2 mph - N/A   Clear
8:00 PM 82.4 °F 87.2 °F 71.6 °F 70% 29.95 in 9.0 mi SSW 8.1 mph - N/A   Clear
9:00 PM 78.8 °F - 71.6 °F 78% 29.98 in 9.0 mi SSW 9.2 mph - N/A   Clear
10:00 PM 78.8 °F - 69.8 °F 74% 29.99 in 9.0 mi SW 12.7 mph - N/A   Clear
11:00 PM 78.8 °F - 66.2 °F 65% 30.00 in 9.0 mi SW 11.5 mph - N/A   Clear